Terminal Aerodrome Forecast
Issued by NWS Pittsburgh, PA

Current Version | Previous Version | Graphics & Text | Print | Product List | Glossary On
Versions: 1 2 3 4 5 6 7 8 9 10 11 12 13 14 15 16 17 18 19 20 21 22 23 24 25 26 27 28 29
000
FTUS41 KPBZ 191456 AAA
TAFPIT
TAF AMD
KPIT 191456Z 1915/2018 24008KT P6SM BKN080
     FM192100 25010KT P6SM VCTS BKN040CB
     FM200000 28005KT P6SM SCT040=

USA.gov is the U.S. government's official web portal to all federal, state and local government web resources and services.